{"data":{"norad_id":58024,"intl_designator":"2023-155J","name":"MACSAT (FINCH 1)","alt_names":[],"object_type":"PAYLOAD","status":"ACTIVE","operator":null,"country":"LUXE","launch_date":"2023-10-09","launch_site_code":"FRGUI","launch_vehicle":null,"mission":null,"orbit_class":"UNKNOWN","rcs_meters":null,"size_class":null,"mass_kg":null,"dimensions":null,"purposes":[],"wikipedia_slug":null,"has_3d_model":false,"image_url":null,"decayed_at":null,"tle_current":{"epoch":"2026-05-25T02:49:36.802848Z","epoch_age_seconds":68161,"freshness":"FRESH","line1":"1 58024U 23155J   26145.11778707  .00004388  00000+0  20492-3 0  9993","line2":"2 58024  97.5777 226.9884 0003697 128.8063 231.3502 15.20344292144822","mean_motion":15.20344292,"eccentricity":0.0003697,"inclination_deg":97.5777,"raan_deg":226.9884,"arg_perigee_deg":128.8063,"mean_anomaly_deg":231.3502,"bstar":0.00020492,"rev_number":14482,"period_min":94.715388322055,"perigee_km":502.25667078007,"apogee_km":507.34591535396,"semimajor_km":6882.938293067,"source":"CELESTRAK","updated_at":"2026-05-25T13:38:00.428462Z"}}}